Location: Peterborough
(44.3091°N, 78.3197°W)
Time: 01:36:47
(UTC-04:00)

SR - Pass Details

Date: 27 March 2023
Orbit: 581 x 867 km, 66.7° (Epoch: 02 June)

Event Time Altitude Azimuth Distance (km) Brightness Sun altitude
Rises 02:19:16 0° 188° (S) 3,024 - -41.3°
Reaches altitude 10° 02:21:47 10° 180° (S) 2,067 - -41.1°
Maximum altitude 02:26:01 36° 115° (ESE) 1,003 - -40.8°
Drops below altitude 10° 02:30:01 10° 48° (NE) 1,956 - -40.5°
Exits shadow 02:30:34 - 46° (NE) 2,157 ? -40.5°
Sets 02:32:21 0° 40° (NE) 2,838 ? -40.4°
